Miscellaneous Local Product
Issued by NWS North Platte, NE

Home | Current Version | Previous Version | Text Only | Print | Product List | Glossary Off
Versions: 1 2 3 4 5 6 7 8 9 10 11 12 13 14 15 16 17 18 19 20 21 22 23 24 25 26 27 28 29 30 31 32 33 34 35 36 37 38 39 40 41 42 43 44 45 46 47 48 49 50

000
AXUS43 KLBF 181610
MISLBF


WESTERN AND NORTH CENTRAL NEBRASKA HOURLY WEATHER ROUNDUP
NATIONAL WEATHER SERVICE NORTH PLATTE NE
1100 AM CDT FRI APR 18 2014

***STATIONS NOT REPORTING VARIABLES SUCH AS SKY/WEATHER OR
PRESSURE ARE PROVIDED BY THE NEBRASKA DEPARTMENT OF
ROADS...RAWS...AND APRS NETWORKS...AND ARE NOT UNDER
NATIONAL WEATHER SERVICE QUALITY CONTROL***

...OBSERVATIONS IN AND NEAR THE EASTERN PANHANDLE OF NEBRASKA...

CITY           SKY/WX    TMP DP  RH WIND       PRES   REMARKS
PINE RIDGE     MOSUNNY   59  39  47 S17G24    29.85F
CHADRON        PTSUNNY   61  42  49 CALM      29.83F
ALLIANCE       PTSUNNY   59  40  49 S13       29.91F
SIDNEY         MOSUNNY   63  38  39 S14       29.96F
WHITECLAY        N/A     57  39  51 S18         N/A
LISCO            N/A     62  38  40 E12         N/A
BIG SPRINGS      N/A     50  41  71 S14         N/A
LEWELLEN         N/A     58  36  45 SE9         N/A
$$

...OBSERVATIONS IN SOUTHWEST NEBRASKA AND FAR NORTHEAST COLORADO...

CITY           SKY/WX    TMP DP  RH WIND       PRES   REMARKS
WRAY           FAIR      60  39  46 S9        30.01S
HOLYOKE        FAIR      61  39  44 S14       29.98F
IMPERIAL       SUNNY     56  38  50 S15       30.01F
OGALLALA       MOSUNNY   56  39  52 S12       29.98F
NORTH PLATTE   MOSUNNY   57  38  48 S20G30    30.04S
MCCOOK         SUNNY     58  41  53 S18       30.07F
LEXINGTON      MOSUNNY   55  42  62 S17       30.09F
PAXTON           N/A     48  40  75 S12         N/A
SUTHERLAND       N/A     49  37  61 S13         N/A
MEDICINE CREEK   N/A     49  42  76 W5          N/A
GOTHENBURG       N/A     54  42  64 SE5G16      N/A
CALLAWAY         N/A     49  40  72 S22         N/A
$$

...OBSERVATIONS IN NORTH CENTRAL NEBRASKA...

CITY           SKY/WX    TMP DP  RH WIND       PRES   REMARKS
VALENTINE      MOSUNNY   61  37  41 S25G33    29.90F
THEDFORD       PTSUNNY   58  37  45 S20G28    29.98S
AINSWORTH      SUNNY     59  38  46 S25G37    29.94S
O`NEILL        SUNNY     59  36  41 S28       30.05F
ORD            SUNNY     56  39  53 S18G31    30.09F
BROKEN BOW     MOSUNNY   54  39  57 S24G33    30.05F
BROWNLEE         N/A     59  36  41 S24         N/A
SPRINGVIEW       N/A     58  39  50 S12G22      N/A
DUNNING          N/A     57  37  46 SW13        N/A
BREWSTER         N/A     60  38  45 S23         N/A
ROSE             N/A     60  42  51 SE25        N/A
NEWPORT          N/A     58  39  50 S18         N/A
COMSTOCK         N/A     60  43  52 S17         N/A
CHAMBERS         N/A     61  40  45 S13G26      N/A
EWING            N/A     58  39  50 S14G26      N/A
$$

...SOME WEATHER OBSERVATIONS FROM AROUND THE REGION...

CITY           SKY/WX    TMP DP  RH WIND       PRES   REMARKS
DENVER         PTSUNNY   69  23  17 SE7       29.99S
LARAMIE        CLOUDY    54  26  34 SW24      30.02F
CHEYENNE       CLOUDY    56  30  37 S17       30.00R
SCOTTSBLUFF    PTSUNNY   61  40  45 SE7       29.91F
RAPID CITY     PTSUNNY   51  40  65 SE8       29.78F
PIERRE         SUNNY     54  36  50 SE20G26   29.88F
WINNER         FAIR      60  38  43 S16G28    29.93R
SIOUX FALLS    MOSUNNY   50  33  52 SE16G24   30.17F
OMAHA          SUNNY     53  33  46 S15       30.28S HAZE
GRAND ISLAND   SUNNY     57  38  48 S20       30.17S
KANSAS CITY    SUNNY     54  36  50 MISG      30.31F
WICHITA        MOSUNNY   55  39  54 SE8       30.27S
HAYS           SUNNY     61  45  55 S23G29    30.17F
LIBERAL        SUNNY     54  43  66 S20       30.19S
GOODLAND       SUNNY     54  39  57 S22       30.05F
$$



USA.gov is the U.S. government's official web portal to all federal, state and local government web resources and services.